TimeEST,TemperatureF,Dew PointF,Humidity,Sea Level PressureIn,VisibilityMPH,Wind Direction,Wind SpeedMPH,Gust SpeedMPH,PrecipitationIn,Events,Conditions,WindDirDegrees,DateUTC
12:02 AM,62.6,60.8,94,29.88,3.0,East,9.2,-,0.08,Rain,Heavy Rain,80,2013-02-25 05:02:00
12:19 AM,64.4,62.6,94,29.87,5.0,ESE,13.8,17.3,0.11,Rain-Thunderstorm,Heavy Rain,110,2013-02-25 05:19:00
12:41 AM,64.4,62.6,94,29.84,8.0,East,9.2,-,0.21,Rain,Light Rain,100,2013-02-25 05:41:00
12:53 AM,64.0,62.1,93,29.85,10.0,ESE,9.2,-,0.21,Rain,Light Rain,110,2013-02-25 05:53:00
1:17 AM,64.4,62.6,94,29.86,5.0,ESE,6.9,-,0.03,Rain-Thunderstorm,Thunderstorms and Rain,110,2013-02-25 06:17:00
1:53 AM,64.9,63.0,93,29.85,3.0,SE,6.9,-,0.13,Rain-Thunderstorm,Thunderstorms and Rain,140,2013-02-25 06:53:00
1:59 AM,64.4,62.6,94,29.84,1.8,East,8.1,-,0.14,Rain-Thunderstorm,Heavy Thunderstorms and Rain,100,2013-02-25 06:59:00
2:11 AM,66.2,64.4,94,29.85,2.5,ENE,6.9,-,0.30,Rain-Thunderstorm,Thunderstorms and Rain,70,2013-02-25 07:11:00
2:14 AM,66.2,64.4,94,29.84,1.8,East,8.1,-,0.35,Rain-Thunderstorm,Heavy Thunderstorms and Rain,80,2013-02-25 07:14:00
2:37 AM,66.2,64.4,94,29.83,2.0,ESE,11.5,-,1.33,Rain-Thunderstorm,Light Thunderstorms and Rain,110,2013-02-25 07:37:00
2:45 AM,66.2,64.4,94,29.82,10.0,East,9.2,-,1.34,Rain-Thunderstorm,Light Thunderstorms and Rain,100,2013-02-25 07:45:00
2:53 AM,66.9,64.0,90,29.82,10.0,ESE,8.1,-,1.34,Rain-Thunderstorm,Light Rain,110,2013-02-25 07:53:00
3:00 AM,66.2,64.4,94,29.81,6.0,ESE,8.1,-,0.01,Rain,Rain,120,2013-02-25 08:00:00
3:15 AM,66.2,64.4,94,29.81,9.0,ESE,8.1,16.1,0.02,Rain,Light Rain,120,2013-02-25 08:15:00
3:53 AM,66.0,64.0,93,29.80,4.0,East,12.7,18.4,0.03,,Overcast,100,2013-02-25 08:53:00
4:05 AM,66.2,64.4,94,29.79,2.5,East,8.1,18.4,N/A,,Overcast,100,2013-02-25 09:05:00
4:22 AM,66.2,64.4,94,29.79,3.0,East,11.5,18.4,0.00,Rain,Light Rain,100,2013-02-25 09:22:00
4:53 AM,64.9,63.0,93,29.79,4.0,East,11.5,-,0.00,,Overcast,90,2013-02-25 09:53:00
5:02 AM,64.4,62.6,94,29.79,1.8,East,12.7,-,N/A,,Overcast,100,2013-02-25 10:02:00
5:25 AM,64.4,62.6,94,29.79,0.8,East,11.5,-,N/A,,Mist,100,2013-02-25 10:25:00
5:53 AM,64.9,63.0,93,29.80,0.5,ESE,10.4,-,N/A,Fog,Fog,110,2013-02-25 10:53:00
6:21 AM,64.4,64.4,100,29.81,0.2,East,4.6,-,N/A,Fog,Fog,100,2013-02-25 11:21:00
6:44 AM,64.4,62.6,94,29.80,0.2,ESE,4.6,-,0.00,Fog,Fog,110,2013-02-25 11:44:00
6:53 AM,64.9,63.0,93,29.81,0.2,ENE,4.6,-,0.00,Fog,Fog,70,2013-02-25 11:53:00
7:05 AM,64.4,62.6,94,29.82,0.2,ENE,5.8,-,N/A,Fog,Fog,60,2013-02-25 12:05:00
7:17 AM,62.6,62.6,100,29.83,1.0,Variable,3.5,-,N/A,,Mist,0,2013-02-25 12:17:00
7:33 AM,64.4,62.6,94,29.82,0.5,East,4.6,-,N/A,Fog,Fog,100,2013-02-25 12:33:00
7:53 AM,64.0,62.1,93,29.83,0.5,NE,9.2,-,N/A,Fog,Fog,50,2013-02-25 12:53:00
8:04 AM,62.6,60.8,94,29.83,1.2,NE,5.8,-,N/A,,Overcast,40,2013-02-25 13:04:00
8:53 AM,61.0,60.1,97,29.81,1.2,ENE,8.1,-,N/A,,Overcast,70,2013-02-25 13:53:00
9:53 AM,62.1,61.0,96,29.82,1.0,East,8.1,-,N/A,,Overcast,90,2013-02-25 14:53:00
10:06 AM,62.6,62.6,100,29.82,0.8,East,8.1,-,N/A,,Overcast,100,2013-02-25 15:06:00
10:53 AM,64.9,63.0,93,29.80,1.5,ESE,9.2,20.7,N/A,,Overcast,120,2013-02-25 15:53:00
11:02 AM,64.4,62.6,94,29.80,2.5,ESE,9.2,18.4,N/A,,Overcast,110,2013-02-25 16:02:00
11:21 AM,66.2,64.4,94,29.79,4.0,SE,10.4,19.6,N/A,,Overcast,130,2013-02-25 16:21:00
11:53 AM,66.9,64.9,93,29.79,4.0,SE,10.4,-,N/A,Thunderstorm,Overcast,130,2013-02-25 16:53:00
12:39 PM,62.6,60.8,94,29.77,1.8,East,26.5,35.7,0.15,Rain-Thunderstorm,Heavy Thunderstorms and Rain,90,2013-02-25 17:39:00
12:43 PM,62.6,60.8,94,29.76,1.2,East,21.9,35.7,0.24,Rain-Thunderstorm,Heavy Thunderstorms and Rain,80,2013-02-25 17:43:00
12:53 PM,62.1,60.1,93,29.77,0.2,NE,27.6,42.6,0.77,Fog-Rain-Thunderstorm,Heavy Thunderstorms and Rain,40,2013-02-25 17:53:00
1:03 PM,62.6,60.8,94,29.78,0.2,NE,17.3,29.9,0.81,Fog-Rain-Thunderstorm,Heavy Thunderstorms and Rain,40,2013-02-25 18:03:00
1:14 PM,62.6,60.8,94,29.77,1.0,NE,15.0,-,1.29,Rain-Thunderstorm,Heavy Thunderstorms and Rain,40,2013-02-25 18:14:00
1:21 PM,62.6,60.8,94,29.79,1.0,East,10.4,-,1.36,Rain-Thunderstorm,Heavy Thunderstorms and Rain,80,2013-02-25 18:21:00
1:29 PM,62.6,60.8,94,29.77,2.0,ENE,11.5,-,1.43,Rain-Thunderstorm,Rain,70,2013-02-25 18:29:00
1:48 PM,62.6,60.8,94,29.79,1.2,NE,11.5,-,1.57,Rain-Thunderstorm,Heavy Thunderstorms and Rain,40,2013-02-25 18:48:00
1:53 PM,62.1,59.0,90,29.79,1.5,NE,9.2,-,1.63,Rain-Thunderstorm,Heavy Rain,40,2013-02-25 18:53:00
1:58 PM,62.6,60.8,94,29.79,2.0,NE,6.9,-,0.03,Rain,Heavy Rain,40,2013-02-25 18:58:00
2:05 PM,62.6,60.8,94,29.78,2.5,NE,11.5,-,0.07,Rain-Thunderstorm,Heavy Rain,40,2013-02-25 19:05:00
2:16 PM,62.6,60.8,94,29.79,4.0,East,8.1,-,0.11,Rain,Rain,90,2013-02-25 19:16:00
2:28 PM,62.6,59.0,88,29.80,1.8,East,5.8,-,0.19,Rain,Heavy Rain,80,2013-02-25 19:28:00
2:37 PM,62.6,60.8,94,29.81,3.0,NE,4.6,-,0.24,Rain,Heavy Rain,50,2013-02-25 19:37:00
2:46 PM,62.6,60.8,94,29.79,5.0,ENE,10.4,-,0.26,Rain,Light Rain,60,2013-02-25 19:46:00
2:53 PM,62.1,60.1,93,29.78,4.0,NE,11.5,-,0.27,Rain,Rain,50,2013-02-25 19:53:00
3:05 PM,62.6,60.8,94,29.78,10.0,ENE,12.7,-,0.01,Rain,Light Rain,60,2013-02-25 20:05:00
3:18 PM,62.6,60.8,94,29.77,10.0,ENE,12.7,-,0.01,Rain,Light Rain,60,2013-02-25 20:18:00
3:40 PM,62.6,60.8,94,29.77,10.0,ENE,10.4,-,0.01,Rain,Light Rain,60,2013-02-25 20:40:00
3:53 PM,62.1,60.1,93,29.77,10.0,East,11.5,-,0.01,,Overcast,100,2013-02-25 20:53:00
4:53 PM,61.0,59.0,93,29.75,10.0,East,13.8,20.7,0.00,,Overcast,100,2013-02-25 21:53:00
5:21 PM,60.8,59.0,94,29.73,7.0,ESE,17.3,28.8,0.01,Rain,Light Rain,110,2013-02-25 22:21:00
5:53 PM,61.0,59.0,93,29.73,10.0,East,17.3,25.3,0.01,Rain,Light Rain,100,2013-02-25 22:53:00
6:53 PM,63.0,61.0,93,29.73,6.0,East,15.0,21.9,0.05,Rain,Light Rain,100,2013-02-25 23:53:00
7:01 PM,62.6,60.8,94,29.73,6.0,ESE,11.5,20.7,0.01,Rain,Light Rain,110,2013-02-26 00:01:00
7:53 PM,63.0,61.0,93,29.72,4.0,East,11.5,18.4,0.05,Rain-Thunderstorm,Rain,80,2013-02-26 00:53:00
8:11 PM,62.6,60.8,94,29.72,2.5,East,11.5,20.7,0.05,Rain,Heavy Rain,90,2013-02-26 01:11:00
8:29 PM,64.4,60.8,88,29.72,4.0,ESE,11.5,23.0,0.18,Rain,Rain,110,2013-02-26 01:29:00
8:38 PM,64.4,62.6,94,29.72,1.8,ESE,15.0,25.3,0.28,Rain-Thunderstorm,Heavy Rain,110,2013-02-26 01:38:00
8:53 PM,63.0,61.0,93,29.72,2.0,East,15.0,25.3,0.60,Rain-Thunderstorm,Heavy Rain,100,2013-02-26 01:53:00
8:59 PM,62.6,60.8,94,29.74,2.5,Variable,6.9,23.0,0.07,Rain,Heavy Rain,0,2013-02-26 01:59:00
9:02 PM,62.6,62.6,100,29.74,3.0,East,5.8,23.0,0.11,Rain,Heavy Rain,80,2013-02-26 02:02:00
9:23 PM,64.4,62.6,94,29.73,10.0,East,15.0,25.3,0.15,Rain,Light Rain,100,2013-02-26 02:23:00
9:53 PM,64.0,62.1,93,29.75,9.0,West,6.9,-,0.15,Rain,Light Rain,270,2013-02-26 02:53:00
10:02 PM,64.4,62.6,94,29.74,10.0,NNE,8.1,-,0.01,Rain,Light Rain,20,2013-02-26 03:02:00
10:53 PM,64.0,62.1,93,29.70,4.0,SE,11.5,-,0.11,Rain,Light Rain,130,2013-02-26 03:53:00
11:14 PM,64.4,62.6,94,29.69,2.0,SE,13.8,-,0.02,Rain,Light Rain,140,2013-02-26 04:14:00
11:35 PM,64.4,62.6,94,29.68,1.8,SE,16.1,25.3,0.05,Rain,Light Rain,130,2013-02-26 04:35:00
11:53 PM,66.0,64.0,93,29.70,1.0,SE,13.8,21.9,0.06,,Overcast,140,2013-02-26 04:53:00